Regional Weather Roundup
Issued by NWS

Home | Current Version | Previous Version | Text Only | Print | Product List | Glossary On
Versions: 1 2 3 4 5 6 7 8 9 10 11 12 13 14 15 16 17 18 19 20 21 22 23 24 25 26 27 28 29 30 31 32 33 34 35 36 37 38 39 40 41 42 43 44 45 46 47 48 49 50
000
ASCA44 KEWX 061920
RWRMX

LATIN AMERICA AND CARIBBEAN REGIONAL WEATHER ROUNDUP
NATIONAL WEATHER SERVICE AUSTIN/SAN ANTONIO TX
200 PM CDT FRI MAY 06 2016

NOTE: "FAIR" INDICATED FEW OR NO CLOUDS BELOW 12,000 FEET WITH NO
SIGNIFICANT WEATHER AND/OR OBSTRUCTIONS TO VISIBILITY.

BAJA CALIFORNIA

CITY           SKY/WX    TMP DP  RH WIND       PRES   REMARKS
LORETO         SUNNY     79  63  57 NE17      29.93S
LA PAZ         SUNNY     79  45  29 N9        29.96R
MEXICALI       PTSUNNY   75  39  27 SE7       29.84S
S.J. DEL CABO  PTSUNNY   91  54  27 N9        29.91S
TIJUANA        LGT RAIN  61  52  72 S5        29.96F

NORTHWESTERN MEXICO

CITY           SKY/WX    TMP DP  RH WIND       PRES   REMARKS
CULIACAN       PTSUNNY   90  63  40 S12       29.93S HX  90
DURANGO        PTSUNNY   84  28  13 E9        30.20F
GUAYMAS        SUNNY     79  57  47 W12       29.87F
HERMOSILLO     SUNNY     82  45  26 S6        29.95F
CD. JUAREZ     SUNNY     84  45  24 S12       29.88F
LOS MOCHIS     PTSUNNY   84  55  37 W14       29.93R
OBREGON        SUNNY     86  48  26 W2        29.88S

NORTHEASTERN MEXICO

CITY           SKY/WX    TMP DP  RH WIND       PRES   REMARKS
CHIHUAHUA      PTSUNNY   93  37  14 SW22      29.99F
MATAMOROS      MOSUNNY   88  55  33 E9        30.02F
MONCLOVA       MOSUNNY   88  41  19 N12       29.99F
MONTERREY      SUNNY     88  48  25 E14       30.00F
NUEVO LAREDO   MOSUNNY   91  41  17 E13       30.00F
PIEDRAS NEGRAS MOSUNNY   90  54  29 SE9       30.03F
REYNOSA        MOSUNNY   86  39  19 SE12      30.02F
SALTILLO         N/A    N/A N/A N/A MISG        N/A
TORREON        PTSUNNY   91  48  22 N8        30.05F
CD. VICTORIA   SUNNY     90  46  22 E5        30.01F

WESTERN MEXICO

CITY           SKY/WX    TMP DP  RH WIND       PRES   REMARKS
AGUASCALIENTES SUNNY     82  34  17 SE10      30.23F
COLIMA         PTSUNNY   84  57  39 CALM      30.00F
DEL BAJIO      MOSUNNY   84  46  26 CALM      30.26F
GUADALAJARA    MOSUNNY   88  34  14 CALM      30.14F
MANZANILLO     PTSUNNY   82  77  83 SW12      29.89F HX  91
MAZATLAN       PTSUNNY   82  70  65 SW7       29.92S
P. VALLARTA    PTSUNNY   82  73  74 S12       29.92F
URUAPAN        SUNNY     79  55  44 S9        30.19F
ZACATECAS      MOSUNNY   84  34  16 CALM      30.28

CENTRAL MEXICO

CITY           SKY/WX    TMP DP  RH WIND       PRES   REMARKS
CUERNAVACA     PTSUNNY   82  55  39 CALM      30.11F
MEXICO CITY    SUNNY     81  37  21 NE13      30.33F
MORELIA        MOSUNNY   86  46  25 CALM      30.22F
POZA RICA      MOSUNNY   90  66  45 NE7       30.06F HX  92
PUEBLA         MOSUNNY   77  39  25 SE2       30.32F
QUERETARO      MOSUNNY   81  48  32 CALM      30.27F
S. LUIS POTOSI SUNNY     81  43  26 E12       30.24F
TAMPICO        SUNNY     82  66  57 E15       30.03F
TOLUCA         MOSUNNY   79  45  29 N8        30.40F HAZE

SOUTHERN MEXICO

CITY           SKY/WX    TMP DP  RH WIND       PRES   REMARKS
ACAPULCO       MOSUNNY   84  77  79 W8        29.88  HX  94
B. DE HUATULCO MOSUNNY   90  75  62 W9        29.93F HX 100
OAXACA         PTSUNNY   82  50  32 NW7       30.18F
P. ESCONDIDO   PTSUNNY   84  79  84 W6        29.98F HX  96
VERACRUZ       PTSUNNY   81  66  61 NE6       30.04F
ZIHUATANEJO    PTSUNNY   86  77  74 SW7       29.89F HX  97

YUCATAN PENINSULA

CITY           SKY/WX    TMP DP  RH WIND       PRES   REMARKS
CAMPECHE       MOSUNNY   82  64  54 NW17      29.98F
CANCUN         PTSUNNY   84  63  48 NW10      29.95F
CHETUMAL       MOSUNNY   86  57  37 N6        29.97F
CD. DEL CARMEN MOSUNNY   84  64  51 N12       30.01F
COZUMEL        MOSUNNY   81  63  54 NE8       29.96F
MERIDA         MOSUNNY   88  55  33 NW8       29.98F
MINATITLAN     MOSUNNY   81  68  65 N12       29.97F
TAPACHULA      MOSUNNY   91  79  66 W13       29.82F HX 107
TUX. GUTIERREZ MOSUNNY   88  61  40 NW12      29.97F
VILLAHERMOSA   MOSUNNY   86  68  54 CALM      30.02F

CENTRAL AMERICA

CITY           SKY/WX    TMP DP  RH WIND       PRES   REMARKS
BELIZE CITY    MOSUNNY   86  72  62 NE6       29.99F HX  92
MANAGUA        PTCLDY    95  75  52 NE7       29.77F HX 107

CARIBBEAN

CITY           SKY/WX    TMP DP  RH WIND       PRES   REMARKS
ARUBA          MOSUNNY   91  79  66 E22       29.74S HX 107
CURACAO        MOSUNNY   90  79  70 E16       29.77F HX 105
KINGSTON       PTSUNNY   86  75  70 S9        29.80F HX  95
NASSAU         MOSUNNY   82  64  54 W10       29.87F
SAN JUAN       MOSUNNY   90  72  55 S12G20    29.87F HX  96
SANTO DOMINGO  MOSUNNY   86  73  66 S6        29.83F HX  93
ST. CROIX      MOSUNNY   88  75  66 SE10      29.92F HX  97
ST. KITTS      MOSUNNY   86  75  70 E17       29.92F HX  95
ST. MAARTEN    MOSUNNY   86  75  70 SE14      29.92F HX  95
ST. THOMAS     SUNNY     88  75  66 SE14      29.90F HX  97

$$





USA.gov is the U.S. government's official web portal to all federal, state and local government web resources and services.